カタログに戻る

USA 331

運用中軍事VLEO
NORAD 52892·PAYLOAD·🇺🇸 United States

打ち上げ Jun 19, 2022 から Cape Canaveral Space Force Station

Loading…

次のパス (今後24時間)

TLE

古いSource: Mike McCants

元期: Jan 2, 2025, 18:14 UTC

1 52892U 22064E   25002.76038917 0.00000150  00000-0  82725-5 0    08
2 52892  53.0074 332.9962 0007211 194.5820 165.4178 15.13447596    08

AllMySatでUSA 331をリアルタイム追跡

Download on the App Store